JST526 YMML-YSSY

Flight info

Callsign JST526
Flight time 1h 4m
Altitude 35000
Route ML H129 DOSEL Y59 RIVET
Aircraft A320/M-SDE3FGHIRWY/LB1

Departure

Time 2026-05-05 22:08
Airport Melbourne Airport (YMML)

Arrival

Time 2026-05-05 23:12
Airport Sydney Kingsford Smith International Airport (YSSY)
Time Latitude Longitude Altitude Speed Heading
2026-05-05 21:55 -37.67527 144.84639 379 ft 0 kts 171°
2026-05-05 22:01 -37.67515 144.84636 379 ft 4 kts 170°
2026-05-05 22:01 -37.67489 144.84630 380 ft 4 kts 170°
2026-05-05 22:01 -37.67462 144.84627 380 ft 4 kts 191°
2026-05-05 22:02 -37.67447 144.84636 381 ft 2 kts 261°
2026-05-05 22:02 -37.67447 144.84637 381 ft 1 kts 261°
2026-05-05 22:05 -37.67447 144.84636 381 ft 1 kts 261°
2026-05-05 22:05 -37.67450 144.84608 380 ft 5 kts 261°
2026-05-05 22:05 -37.67475 144.84558 379 ft 9 kts 217°
2026-05-05 22:06 -37.67549 144.84550 376 ft 13 kts 173°
2026-05-05 22:06 -37.67653 144.84571 373 ft 17 kts 171°
2026-05-05 22:06 -37.67751 144.84588 374 ft 15 kts 172°
2026-05-05 22:06 -37.67824 144.84530 365 ft 16 kts 257°
2026-05-05 22:07 -37.67844 144.84378 365 ft 19 kts 258°
2026-05-05 22:07 -37.67861 144.84218 360 ft 19 kts 263°
2026-05-05 22:07 -37.67883 144.84039 356 ft 20 kts 261°
2026-05-05 22:07 -37.67845 144.83962 362 ft 10 kts 352°
2026-05-05 22:08 -37.67667 144.83931 365 ft 56 kts 351°
2026-05-05 22:08 -37.67077 144.83820 384 ft 112 kts 352°
2026-05-05 22:08 -37.66161 144.83652 447 ft 150 kts 352°
2026-05-05 22:08 -37.65154 144.83485 1061 ft 146 kts 352°
2026-05-05 22:09 -37.64151 144.83289 1707 ft 146 kts 348°
2026-05-05 22:09 -37.63141 144.83087 2203 ft 152 kts 347°
2026-05-05 22:09 -37.62027 144.82862 2433 ft 173 kts 348°
2026-05-05 22:09 -37.60764 144.82610 2629 ft 195 kts 348°
2026-05-05 22:10 -37.59327 144.82415 2831 ft 223 kts
2026-05-05 22:10 -37.57767 144.83051 3186 ft 251 kts 23°
2026-05-05 22:10 -37.56157 144.84032 3875 ft 262 kts 24°
2026-05-05 22:10 -37.54504 144.85049 4718 ft 267 kts 24°
2026-05-05 22:11 -37.52816 144.86088 5552 ft 272 kts 24°
2026-05-05 22:11 -37.51099 144.87140 6396 ft 277 kts 23°
2026-05-05 22:11 -37.49356 144.88204 7210 ft 281 kts 22°
2026-05-05 22:11 -37.47588 144.89281 8011 ft 284 kts 22°
2026-05-05 22:12 -37.45800 144.90366 8806 ft 286 kts 22°
2026-05-05 22:12 -37.44069 144.91658 9618 ft 294 kts 34°
2026-05-05 22:12 -37.42617 144.93501 10372 ft 302 kts 50°
2026-05-05 22:12 -37.41344 144.95730 10653 ft 325 kts 51°
2026-05-05 22:13 -37.39990 144.98126 10797 ft 347 kts 52°
2026-05-05 22:13 -37.38571 145.00649 11264 ft 357 kts 52°
2026-05-05 22:13 -37.37135 145.03211 11939 ft 360 kts 52°
2026-05-05 22:13 -37.35683 145.05798 12632 ft 362 kts 51°
2026-05-05 22:14 -37.34223 145.08386 13318 ft 364 kts 51°
2026-05-05 22:14 -37.32767 145.10956 13993 ft 367 kts 51°
2026-05-05 22:14 -37.31283 145.13575 14597 ft 369 kts 51°
2026-05-05 22:14 -37.29786 145.16214 15179 ft 372 kts 51°
2026-05-05 22:15 -37.28278 145.18870 15744 ft 375 kts 51°
2026-05-05 22:15 -37.26759 145.21545 16292 ft 378 kts 51°
2026-05-05 22:15 -37.25229 145.24234 16854 ft 380 kts 51°
2026-05-05 22:15 -37.23682 145.26944 17407 ft 383 kts 51°
2026-05-05 22:16 -37.22124 145.29672 17960 ft 386 kts 51°
2026-05-05 22:16 -37.20554 145.32424 18506 ft 390 kts 51°
2026-05-05 22:16 -37.18972 145.35199 19011 ft 392 kts 51°
2026-05-05 22:16 -37.17380 145.37991 19516 ft 395 kts 51°
2026-05-05 22:17 -37.15775 145.40801 20024 ft 397 kts 51°
2026-05-05 22:17 -37.14162 145.43624 20527 ft 400 kts 51°
2026-05-05 22:17 -37.12539 145.46459 21035 ft 402 kts 51°
2026-05-05 22:17 -37.10902 145.49313 21507 ft 404 kts 50°
2026-05-05 22:18 -37.09254 145.52180 21954 ft 406 kts 50°
2026-05-05 22:18 -37.07599 145.55062 22405 ft 409 kts 50°
2026-05-05 22:18 -37.05936 145.57959 22856 ft 411 kts 50°
2026-05-05 22:18 -37.04262 145.60870 23298 ft 413 kts 50°
2026-05-05 22:19 -37.02577 145.63797 23741 ft 416 kts 50°
2026-05-05 22:19 -37.00876 145.66750 24108 ft 418 kts 50°
2026-05-05 22:19 -36.99168 145.69706 24456 ft 421 kts 50°
2026-05-05 22:19 -36.97445 145.72681 24792 ft 424 kts 50°
2026-05-05 22:20 -36.95710 145.75682 25124 ft 427 kts 50°
2026-05-05 22:20 -36.93967 145.78695 25453 ft 430 kts 51°
2026-05-05 22:20 -36.92209 145.81733 25781 ft 432 kts 50°
2026-05-05 22:20 -36.90441 145.84782 26106 ft 435 kts 50°
2026-05-05 22:21 -36.88658 145.87853 26422 ft 438 kts 51°
2026-05-05 22:21 -36.86866 145.90943 26740 ft 441 kts 51°
2026-05-05 22:21 -36.85064 145.94054 27056 ft 444 kts 51°
2026-05-05 22:21 -36.83248 145.97180 27396 ft 447 kts 51°
2026-05-05 22:22 -36.81415 146.00325 27713 ft 449 kts 51°
2026-05-05 22:22 -36.79565 146.03494 28039 ft 452 kts 51°
2026-05-05 22:22 -36.77731 146.06632 28359 ft 455 kts 51°
2026-05-05 22:22 -36.75860 146.09834 28669 ft 457 kts 51°
2026-05-05 22:23 -36.73984 146.13045 29004 ft 459 kts 51°
2026-05-05 22:23 -36.72100 146.16269 29440 ft 459 kts 51°
2026-05-05 22:23 -36.70216 146.19486 29878 ft 459 kts 51°
2026-05-05 22:23 -36.68330 146.22703 30316 ft 459 kts 51°
2026-05-05 22:24 -36.66444 146.25916 30689 ft 459 kts 51°
2026-05-05 22:24 -36.64558 146.29125 31069 ft 459 kts 51°
2026-05-05 22:24 -36.62670 146.32335 31429 ft 459 kts 51°
2026-05-05 22:24 -36.60782 146.35542 31795 ft 459 kts 51°
2026-05-05 22:25 -36.58893 146.38752 32173 ft 460 kts 51°
2026-05-05 22:25 -36.57002 146.41964 32535 ft 460 kts 51°
2026-05-05 22:25 -36.55111 146.45169 32909 ft 460 kts 51°
2026-05-05 22:25 -36.53218 146.48376 33291 ft 460 kts 50°
2026-05-05 22:26 -36.51325 146.51577 33669 ft 460 kts 50°
2026-05-05 22:26 -36.49430 146.54777 34055 ft 460 kts 50°
2026-05-05 22:26 -36.47532 146.57979 34382 ft 460 kts 50°
2026-05-05 22:26 -36.45636 146.61175 34690 ft 459 kts 50°
2026-05-05 22:27 -36.43738 146.64369 35014 ft 459 kts 50°
2026-05-05 22:27 -36.41842 146.67557 35220 ft 459 kts 50°
2026-05-05 22:27 -36.39932 146.70768 35265 ft 465 kts 50°
2026-05-05 22:28 -36.36064 146.77270 35266 ft 470 kts 50°
2026-05-05 22:28 -36.32181 146.83805 35266 ft 471 kts 50°
2026-05-05 22:29 -36.28300 146.90293 35263 ft 471 kts 50°
2026-05-05 22:29 -36.24390 146.96814 35269 ft 471 kts 50°
2026-05-05 22:30 -36.20479 147.03324 35258 ft 471 kts 50°
2026-05-05 22:30 -36.16568 147.09834 35266 ft 471 kts 50°
2026-05-05 22:31 -36.12649 147.16335 35264 ft 472 kts 50°
2026-05-05 22:31 -36.08722 147.22838 35265 ft 472 kts 50°
2026-05-05 22:32 -36.04793 147.29336 35257 ft 472 kts 50°
2026-05-05 22:32 -36.00866 147.35831 35263 ft 472 kts 50°
2026-05-05 22:33 -35.96933 147.42319 35266 ft 472 kts 50°
2026-05-05 22:33 -35.92994 147.48800 35265 ft 472 kts 50°
2026-05-05 22:34 -35.89046 147.55281 35269 ft 472 kts 50°
2026-05-05 22:34 -35.85093 147.61746 35270 ft 472 kts 50°
2026-05-05 22:35 -35.81139 147.68215 35274 ft 472 kts 50°
2026-05-05 22:35 -35.77176 147.74680 35270 ft 472 kts 50°
2026-05-05 22:36 -35.73215 147.81133 35273 ft 472 kts 50°
2026-05-05 22:36 -35.69254 147.87574 35273 ft 472 kts 50°
2026-05-05 22:37 -35.65311 147.93976 35258 ft 472 kts 50°
2026-05-05 22:37 -35.61342 148.00410 35268 ft 472 kts 50°
2026-05-05 22:38 -35.57375 148.06831 35270 ft 472 kts 50°
2026-05-05 22:38 -35.53407 148.13233 35268 ft 471 kts 50°
2026-05-05 22:39 -35.50097 148.18556 35248 ft 471 kts 50°
2026-05-05 22:39 -35.46123 148.24942 35260 ft 471 kts 50°
2026-05-05 22:40 -35.42150 148.31327 35266 ft 471 kts 50°
2026-05-05 22:40 -35.38177 148.37704 35263 ft 471 kts 50°
2026-05-05 22:41 -35.34198 148.44067 35257 ft 470 kts 50°
2026-05-05 22:41 -35.30221 148.50423 35260 ft 470 kts 50°
2026-05-05 22:42 -35.26245 148.56770 35266 ft 470 kts 50°
2026-05-05 22:42 -35.22256 148.63118 35264 ft 470 kts 50°
2026-05-05 22:43 -35.18273 148.69444 35264 ft 469 kts 50°
2026-05-05 22:43 -35.14283 148.75771 35284 ft 469 kts 50°
2026-05-05 22:44 -35.10288 148.82081 35282 ft 469 kts 50°
2026-05-05 22:44 -35.06288 148.88391 35273 ft 469 kts 50°
2026-05-05 22:45 -35.02299 148.94691 35280 ft 469 kts 50°
2026-05-05 22:45 -34.98301 149.00977 35283 ft 469 kts 50°
2026-05-05 22:46 -34.94302 149.07261 35292 ft 469 kts 50°
2026-05-05 22:46 -34.90306 149.13536 35287 ft 468 kts 50°
2026-05-05 22:47 -34.86309 149.19797 35291 ft 468 kts 50°
2026-05-05 22:47 -34.82307 149.26057 35295 ft 468 kts 50°
2026-05-05 22:47 -34.80305 149.29182 35161 ft 468 kts 50°
2026-05-05 22:48 -34.78326 149.32261 34916 ft 467 kts 50°
2026-05-05 22:48 -34.76318 149.35381 34678 ft 467 kts 50°
2026-05-05 22:48 -34.74355 149.38521 34430 ft 467 kts 54°
2026-05-05 22:48 -34.72686 149.41922 33624 ft 472 kts 60°
2026-05-05 22:49 -34.71141 149.45464 32736 ft 473 kts 61°
2026-05-05 22:49 -34.69609 149.49010 31793 ft 476 kts 61°
2026-05-05 22:49 -34.68065 149.52587 30926 ft 480 kts 61°
2026-05-05 22:49 -34.66507 149.56180 30301 ft 477 kts 61°
2026-05-05 22:50 -34.64960 149.59733 29650 ft 474 kts 60°
2026-05-05 22:50 -34.63424 149.63248 29049 ft 468 kts 60°
2026-05-05 22:50 -34.61901 149.66720 28434 ft 463 kts 60°
2026-05-05 22:50 -34.60396 149.70153 27838 ft 459 kts 60°
2026-05-05 22:51 -34.58901 149.73553 27245 ft 455 kts 60°
2026-05-05 22:51 -34.57418 149.76920 26650 ft 451 kts 60°
2026-05-05 22:51 -34.55947 149.80262 26070 ft 447 kts 60°
2026-05-05 22:51 -34.54491 149.83576 25490 ft 444 kts 60°
2026-05-05 22:52 -34.53045 149.86867 24923 ft 440 kts 60°
2026-05-05 22:52 -34.51607 149.90129 24361 ft 437 kts 60°
2026-05-05 22:52 -34.50179 149.93359 23793 ft 433 kts 60°
2026-05-05 22:52 -34.48760 149.96560 23214 ft 429 kts 60°
2026-05-05 22:53 -34.47361 149.99718 22700 ft 421 kts 61°
2026-05-05 22:53 -34.46003 150.02791 22227 ft 409 kts 61°
2026-05-05 22:53 -34.44664 150.05819 21736 ft 406 kts 61°
2026-05-05 22:53 -34.43339 150.08815 21273 ft 402 kts 61°
2026-05-05 22:54 -34.42023 150.11786 20808 ft 398 kts 61°
2026-05-05 22:54 -34.40718 150.14721 20339 ft 395 kts 61°
2026-05-05 22:54 -34.39436 150.17595 19879 ft 391 kts 61°
2026-05-05 22:54 -34.38128 150.20526 19378 ft 389 kts 61°
2026-05-05 22:55 -34.36848 150.23393 18909 ft 386 kts 61°
2026-05-05 22:55 -34.35574 150.26250 18370 ft 384 kts 61°
2026-05-05 22:55 -34.34309 150.29088 17849 ft 381 kts 61°
2026-05-05 22:55 -34.33057 150.31895 17344 ft 377 kts 60°
2026-05-05 22:56 -34.31826 150.34650 16696 ft 379 kts 60°
2026-05-05 22:56 -34.30573 150.37450 16132 ft 378 kts 60°
2026-05-05 22:56 -34.29326 150.40234 15624 ft 375 kts 60°
2026-05-05 22:56 -34.28087 150.43003 15106 ft 373 kts 60°
2026-05-05 22:57 -34.26855 150.45758 14584 ft 371 kts 60°
2026-05-05 22:57 -34.25628 150.48500 14060 ft 370 kts 60°
2026-05-05 22:57 -34.24404 150.51230 13496 ft 368 kts 60°
2026-05-05 22:57 -34.23195 150.53937 12969 ft 364 kts 60°
2026-05-05 22:58 -34.21995 150.56622 12444 ft 361 kts 60°
2026-05-05 22:58 -34.20806 150.59277 11930 ft 353 kts 60°
2026-05-05 22:58 -34.19651 150.61845 11432 ft 346 kts 60°
2026-05-05 22:58 -34.18504 150.64390 10938 ft 344 kts 60°
2026-05-05 22:59 -34.17363 150.66922 10572 ft 339 kts 60°
2026-05-05 22:59 -34.16257 150.69379 10452 ft 327 kts 60°
2026-05-05 22:59 -34.15220 150.71695 10303 ft 307 kts 60°
2026-05-05 22:59 -34.14219 150.73929 9958 ft 300 kts 60°
2026-05-05 23:00 -34.12260 150.78279 9671 ft 292 kts 60°
2026-05-05 23:00 -34.11291 150.80428 9434 ft 292 kts 60°
2026-05-05 23:00 -34.10320 150.82578 9080 ft 290 kts 60°
2026-05-05 23:01 -34.09366 150.84691 8775 ft 285 kts 60°
2026-05-05 23:01 -34.08427 150.86777 8495 ft 282 kts 60°
2026-05-05 23:01 -34.07493 150.88847 8219 ft 279 kts 60°
2026-05-05 23:01 -34.06567 150.90899 7953 ft 277 kts 60°
2026-05-05 23:02 -34.05653 150.92931 7674 ft 275 kts 60°
2026-05-05 23:02 -34.04747 150.94949 7408 ft 273 kts 60°
2026-05-05 23:02 -34.03865 150.96969 7137 ft 271 kts 66°
2026-05-05 23:02 -34.03445 150.99167 6869 ft 270 kts 87°
2026-05-05 23:03 -34.03704 151.01398 6598 ft 271 kts 107°
2026-05-05 23:03 -34.04605 151.03381 6310 ft 272 kts 128°
2026-05-05 23:03 -34.05901 151.05052 6023 ft 272 kts 132°
2026-05-05 23:03 -34.07258 151.06630 5740 ft 271 kts 141°
2026-05-05 23:04 -34.08886 151.07786 5455 ft 272 kts 156°
2026-05-05 23:04 -34.10701 151.08419 5212 ft 273 kts 166°
2026-05-05 23:04 -34.12564 151.08900 4767 ft 278 kts 166°
2026-05-05 23:04 -34.14457 151.09392 4309 ft 275 kts 167°
2026-05-05 23:05 -34.16306 151.09869 3975 ft 268 kts 167°
2026-05-05 23:05 -34.18069 151.10322 3917 ft 257 kts 166°
2026-05-05 23:05 -34.19775 151.10777 3853 ft 245 kts 162°
2026-05-05 23:05 -34.21178 151.11763 3806 ft 228 kts 130°
2026-05-05 23:06 -34.21854 151.13401 3747 ft 217 kts 96°
2026-05-05 23:06 -34.21794 151.15208 3697 ft 216 kts 80°
2026-05-05 23:06 -34.21495 151.16986 3646 ft 216 kts 76°
2026-05-05 23:06 -34.21153 151.18754 3599 ft 215 kts 76°
2026-05-05 23:07 -34.20803 151.20511 3553 ft 215 kts 74°
2026-05-05 23:07 -34.20085 151.22067 3495 ft 214 kts 42°
2026-05-05 23:07 -34.18786 151.22941 3444 ft 217 kts 19°
2026-05-05 23:07 -34.17303 151.23288 3394 ft 218 kts
2026-05-05 23:08 -34.15795 151.23107 3343 ft 219 kts 349°
2026-05-05 23:08 -34.14300 151.22716 3297 ft 220 kts 349°
2026-05-05 23:08 -34.12830 151.22332 3236 ft 211 kts 350°
2026-05-05 23:08 -34.11404 151.21961 3017 ft 208 kts 350°
2026-05-05 23:09 -34.09989 151.21592 2765 ft 208 kts 350°
2026-05-05 23:09 -34.08577 151.21225 2482 ft 208 kts 349°
2026-05-05 23:09 -34.07161 151.20856 2196 ft 209 kts 349°
2026-05-05 23:09 -34.05733 151.20485 1929 ft 208 kts 348°
2026-05-05 23:10 -34.04357 151.20126 1646 ft 195 kts 348°
2026-05-05 23:10 -34.03068 151.19791 1379 ft 184 kts 346°
2026-05-05 23:10 -34.01878 151.19483 1170 ft 165 kts 348°
2026-05-05 23:10 -34.00800 151.19202 943 ft 154 kts 346°
2026-05-05 23:11 -33.99787 151.18939 706 ft 144 kts 346°
2026-05-05 23:11 -33.98824 151.18692 515 ft 142 kts 345°
2026-05-05 23:11 -33.97871 151.18440 330 ft 139 kts 346°
2026-05-05 23:11 -33.96935 151.18200 170 ft 136 kts 347°
2026-05-05 23:12 -33.96017 151.17957 29 ft 128 kts 346°
2026-05-05 23:12 -33.95395 151.17797 29 ft 60 kts 348°
2026-05-05 23:12 -33.95004 151.17693 28 ft 54 kts 348°
2026-05-05 23:12 -33.94733 151.17640 29 ft 36 kts 358°
2026-05-05 23:13 -33.94550 151.17673 30 ft 18 kts 11°
2026-05-05 23:13 -33.94423 151.17718 30 ft 19 kts 18°
2026-05-05 23:13 -33.94308 151.17728 30 ft 16 kts 346°
2026-05-05 23:13 -33.94189 151.17691 29 ft 19 kts 346°
2026-05-05 23:14 -33.94090 151.17661 28 ft 16 kts 346°
2026-05-05 23:14 -33.93974 151.17630 29 ft 17 kts 347°
2026-05-05 23:14 -33.93849 151.17597 29 ft 19 kts 347°
2026-05-05 23:14 -33.93720 151.17565 29 ft 14 kts 349°
2026-05-05 23:15 -33.93648 151.17601 29 ft 12 kts 61°
2026-05-05 23:15 -33.93644 151.17685 30 ft 9 kts 99°
2026-05-05 23:15 -33.93656 151.17765 30 ft 10 kts 99°
2026-05-05 23:15 -33.93635 151.17813 30 ft 7 kts 22°
2026-05-05 23:16 -33.93585 151.17825 30 ft 6 kts 10°
2026-05-05 23:16 -33.93547 151.17833 30 ft 4 kts
2026-05-05 23:16 -33.93532 151.17816 30 ft 1 kts 288°
2026-05-05 23:16 -33.93528 151.17794 30 ft 4 kts 281°
2026-05-05 23:17 -33.93526 151.17775 30 ft 1 kts 280°
2026-05-05 23:17 -33.93525 151.17768 30 ft 0 kts 280°